Flag for U.S.A. Weather past 2 weeks in Springfield, Illinois, U.S.A.

Now
55 °F

Sunny.


Feels Like: 49 °F
Forecast: 32 / 56 °F
Wind: 26 mph from South

Location: Capital Airport


UV Index: 5 (Moderate)

Visibility: 10 mi


Pressure: 30.19 "Hg

Humidity: 35%

Dew point: 28 °F

Location of SpringfieldLocation

Historic Weather in Springfield

°F

Springfield temperature yesterday

Maximum temperature yesterday: 46 °F (at 2:52 PM)
Minimum temperature yesterday: 30 °F (at 4:52 AM)
Average temperature yesterday: 37 °F

Past Weeks' High & Low Weather Summary

 TemperatureHumidityPressure
High81 °F (Apr 12, 2:52 PM)93% (Apr 2, 9:52 PM)30.27 "Hg (Apr 2, 9:52 PM)
Low30 °F (Apr 15, 4:52 AM)16% (Apr 11, 2:52 PM)29.45 "Hg (Apr 13, 9:52 PM)
Average52 °F60%29.92 "Hg
* Reported Apr 1 12:52 PM — Apr 16 12:52 PM, Springfield, Weather by CustomWeather, © 2014

Note: Actual official high and low records may vary slightly from our data, if they occured in-between our weather recording intervals... More about our weather records

Advertising

Historic Weather Conditions — Data for Previous 24 hours

 ConditionsComfort  
Time TempWeatherWind HumidityBarometerVisibility
12:52 PM
Apr 16
54 °FSunny.24 mph37%30.22 "Hg10 mi
11:52 AM52 °FSunny.26 mph38%30.25 "Hg10 mi
10:52 AM49 °FSunny.23 mph41%30.27 "Hg10 mi
9:52 AM47 °FSunny.23 mph44%30.26 "Hg10 mi
8:52 AM42 °FSunny.20 mph51%30.27 "Hg10 mi
7:52 AM40 °FSunny.18 mph53%30.27 "Hg10 mi
6:52 AM36 °FClear.15 mph59%30.24 "Hg10 mi
5:52 AM36 °FClear.16 mph62%30.23 "Hg10 mi
4:52 AM36 °FClear.14 mph62%30.23 "Hg10 mi
3:52 AM36 °FClear.14 mph62%30.23 "Hg10 mi
2:52 AM36 °FClear.13 mph59%30.22 "Hg10 mi
1:52 AM35 °FClear.10 mph61%30.22 "Hg10 mi
12:52 AM33 °FClear.8 mph66%30.22 "Hg10 mi
11:52 PM
Apr 15
35 °FClear.6 mph61%30.22 "Hg10 mi
10:52 PM34 °FClear.6 mph61%30.22 "Hg10 mi
9:52 PM34 °FClear.5 mph64%30.21 "Hg10 mi
8:52 PM38 °FClear.No wind51%30.21 "Hg10 mi
7:52 PM42 °FSunny.No wind38%30.19 "Hg10 mi
6:52 PM45 °FSunny.7 mph34%30.19 "Hg10 mi
5:52 PM46 °FSunny.15 mph31%30.19 "Hg10 mi
4:52 PM45 °FPassing clouds.7 mph31%30.18 "Hg10 mi
3:52 PM45 °FPassing clouds.13 mph34%30.19 "Hg10 mi
2:52 PM46 °FPartly sunny.15 mph34%30.20 "Hg10 mi
Weather by CustomWeather, © 2014

See weather overview